sat.trackr.live / text

‹ back to catalog

ONEWEB-0524

NORAD 54142 · 2022-138AF

PAYLOAD ACTIVE UNKNOWN

§ Identity

Operator
Country
UK
Launch date
2022-10-22
Launch site
SRILR
Launch vehicle
Mass (kg)
RCS (m²)

Purposes: comms

External: N2YO · Heavens-Above · Gunter

§ Orbital elements

Epoch: 2026-09-19T22:37:09.503040Z

Period
109.03 min
Inclination
87.9143°
Eccentricity
0.0001148
Mean motion
13.20773168 rev/d
Perigee alt
1,180.9 km
Apogee alt
1,182.6 km
Semi-major
7,559.9 km
B*
2.5354e-4
RAAN
255.5345°
Arg perigee
98.3498°
Mean anomaly
261.7765°
Rev number
19,181

§ Raw data

ONEWEB-05241 54142U 22138AF  26262.94247110  .00000116  00000+0  25354-3 0  99972 54142  87.9143 255.5345 0001148  98.3498 261.7765 13.20773168191816

JSON: /api/v1/satellites/54142 · /tle

For live sub-satellite position, see the globe view (requires WebGL).

§ Visibility from observer

Set your observer location to see the next 7 days of passes ≥ 10°. The values pass through the URL so the page stays shareable.

No JS? Fill the form by hand. The geolocation button needs JavaScript.